Probability
0 0 0 0 0 0 0 0 0 0 0 0 0 0 0 0 0 0 0 0 0 0 0 0 0 0 0 0 0 1 2 2 2 1 0 0 0 0 1 2 3 3 3
0 0 0 0 0 0 0 0 0 0 0 0 0 0 0 0 0 0 0 0 0 0 0 0 0 0 0 0 0 1 1 1 1 0 0 0 0 0 1 2 3 3 3
0 0 0 0 0 0 0 0 0 0 0 0 0 0 0 0 0 0 0 0 0 0 0 0 0 0 0 0 0 0 0 0 0 0 0 0 0 0 1 3 3 3 3
0 0 0 0 0 0 0 0 0 0 0 0 0 0 0 0 0 0 0 0 0 0 0 0 0 0 0 0 0 0 0 0 0 0 0 0 0 0 1 4 4 3 2
0 0 0 0 0 0 0 0 0 0 0 0 0 0 0 0 0 0 0 0 0 0 0 0 0 0 0 0 0 0 0 0 0 0 0 0 0 0 1 4 4 2 2
0 0 0 0 0 0 0 0 0 0 0 0 0 0 0 0 0 0 0 0 0 0 0 0 0 0 0 0 0 0 0 0 0 0 0 0 0 0 0 2 3 3 2
0 0 0 0 0 0 0 0 0 0 0 0 0 0 0 0 0 0 0 0 0 0 0 0 0 0 0 0 0 0 0 0 0 0 0 0 0 0 0 1 2 3 3
0 0 0 0 0 0 0 0 0 0 0 0 0 0 0 0 0 0 0 0 0 0 0 0 0 0 0 0 0 0 0 0 0 0 0 0 0 0 0 1 2 2 1
0 0 0 0 0 0 0 0 0 0 0 0 0 0 0 0 0 0 0 0 0 0 0 0 0 0 0 0 0 0 0 0 0 0 0 0 0 0 0 1 1 1 0
0 0 0 0 0 0 0 0 0 0 0 0 0 0 0 0 0 0 0 0 0 0 0 0 0 0 0 0 0 0 0 0 0 0 0 0 0 0 0 0 1 1 1
0 0 0 0 0 0 0 0 0 0 0 0 0 0 0 0 0 0 0 0 0 0 0 0 0 0 0 0 0 0 0 0 0 0 0 0 0 0 0 0 1 2 2
0 0 0 0 0 0 0 0 0 0 0 0 0 0 0 0 0 0 0 0 0 0 0 0 0 0 0 0 0 0 0 0 0 0 0 0 0 0 0 0 1 2 2
0 0 0 0 0 0 0 0 0 0 0 0 0 0 0 0 0 0 0 0 0 0 0 0 0 0 0 0 0 0 0 0 0 0 0 0 0 0 0 0 0 1 1
0 0 0 0 0 0 0 0 0 0 0 0 0 0 0 0 0 0 0 0 0 0 0 0 0 0 0 0 0 0 0 0 0 0 0 0 0 0 0 0 0 0 0
0 0 0 0 0 0 0 0 0 0 0 0 0 0 0 0 0 0 0 0 0 0 0 0 0 0 0 0 0 0 0 0 0 0 0 0 0 0 0 0 0 0 0
0 0 0 0 0 0 0 0 0 0 0 0 0 0 0 0 0 0 0 0 0 0 0 0 0 0 0 0 0 0 0 0 0 0 0 0 0 0 0 0 0 0 0
0 0 0 0 0 0 0 0 0 0 0 0 0 0 0 0 0 0 0 0 0 0 0 0 0 0 0 0 0 0 0 0 0 0 0 0 0 0 0 0 0 0 0
0 0 0 0 0 0 0 0 0 0 0 0 0 0 0 0 0 0 0 0 0 0 0 0 0 0 0 0 0 0 0 0 0 0 0 0 0 0 0 0 0 0 0
0 0 0 0 0 0 0 0 0 0 0 0 0 0 0 0 0 0 0 0 0 0 0 0 0 0 0 0 0 0 0 0 0 0 0 0 0 0 0 0 0 0 0
0 0 0 0 0 0 0 0 0 0 0 0 0 0 0 0 0 0 0 0 0 0 0 0 0 0 0 0 0 0 0 0 0 0 0 0 0 0 0 0 0 0 0
0 0 0 0 0 0 0 0 0 0 0 0 0 0 0 0 0 0 0 0 0 0 0 0 0 0 0 0 0 0 0 0 0 0 0 0 0 0 0 0 0 0 0
0 0 0 0 0 0 0 0 0 0 0 0 0 0 0 0 0 0 0 0 0 0 0 0 0 0 0 0 0 0 0 0 0 0 0 0 0 0 0 0 0 0 0
0 0 0 0 0 0 0 0 0 0 0 0 0 0 0 0 0 0 0 0 0 0 0 0 0 0 0 0 0 0 0 0 0 0 0 0 0 0 0 0 0 0 0
0 0 0 0 0 0 0 0 0 0 0 0 0 0 0 0 0 0 0 0 0 0 0 0 0 0 0 0 0 0 0 0 0 0 0 0 0 0 0 0 0 0 0
0 0 0 0 0 0 0 0 0 0 0 0 0 0 0 0 0 0 0 0 0 0 0 0 0 0 0 0 0 0 0 0 0 0 0 0 0 0 0 0 0 0 0
0 0 0 0 0 0 0 0 0 0 0 0 0 0 0 0 0 0 0 0 0 0 0 0 0 0 0 0 0 0 0 0 0 0 0 0 0 0 0 0 0 0 0
Wind_Speed
2 2 2 2 3 2 3 3 4 5 5 5 5 6 6 5 5 5 4 10 11 10 10 9 9 9 8 8 8 9 9 9 9 9 8 8 8 7 6 5 4 4 3
2 2 3 3 3 3 3 3 4 4 4 4 6 6 5 5 5 5 5 7 11 12 12 11 10 10 10 9 9 9 9 9 9 9 9 9 9 8 7 6 5 4 4
2 2 3 3 2 2 4 4 4 4 4 5 5 5 5 5 5 6 5 5 5 10 12 12 11 11 10 10 10 10 10 10 9 9 9 9 9 9 8 7 6 5 4
3 3 3 2 2 3 3 4 3 4 4 4 4 4 4 4 5 5 5 5 5 5 8 12 11 11 11 11 10 10 10 10 10 10 10 10 10 9 9 7 7 6 6
3 3 3 2 3 3 3 3 3 3 4 4 4 4 4 4 5 5 5 6 5 5 5 9 12 12 11 11 10 10 10 11 11 10 10 10 10 10 8 8 8 7 7
3 3 3 3 3 3 3 3 4 3 3 3 4 5 4 4 4 5 5 4 4 5 5 6 6 7 11 11 11 11 11 11 11 11 11 11 10 10 9 8 8 8 8
3 3 3 3 3 3 3 3 3 4 3 2 3 3 3 4 4 4 4 4 5 5 5 5 4 4 5 10 12 12 12 11 11 11 11 11 11 10 9 8 8 8 9
2 3 3 3 3 3 3 3 3 2 2 2 2 2 2 4 3 4 4 4 5 4 5 5 5 5 4 4 7 11 12 11 11 11 11 11 11 11 10 9 8 8 8
2 2 3 3 3 3 2 2 2 3 2 1 1 2 2 1 2 3 3 4 4 4 4 4 5 5 5 4 4 7 10 11 11 11 11 11 12 13 12 10 10 9 9
2 2 3 3 3 2 2 2 2 2 2 1 1 2 1 2 2 1 3 3 3 3 4 3 4 4 4 3 5 8 9 10 10 10 10 10 11 12 12 12 12 11 10
2 2 2 2 2 2 2 2 2 2 2 2 1 1 2 2 2 2 1 3 3 2 2 3 3 3 3 3 3 5 8 8 9 9 10 10 10 11 11 11 10 10 10
2 2 2 2 2 2 2 2 2 2 2 2 1 1 2 2 1 2 1 1 2 3 2 2 2 3 2 3 4 6 7 7 7 8 9 9 10 10 10 10 10 9 9
0 0 1 2 1 1 2 2 2 2 2 2 1 1 1 1 2 2 2 1 1 2 3 2 2 2 2 2 3 6 6 6 6 7 7 8 9 9 9 10 9 9 9
1 1 2 2 2 2 2 2 2 2 2 2 2 1 1 1 1 2 3 3 1 2 2 3 2 2 2 2 3 5 3 5 6 6 6 6 7 8 8 9 9 9 9
1 2 2 2 2 2 2 3 2 1 2 1 1 1 1 1 1 1 1 2 3 1 1 3 2 3 2 2 3 2 2 4 5 5 5 5 6 6 7 7 8 8 8
2 2 2 2 2 2 2 2 2 1 2 1 1 2 1 1 1 1 1 1 2 3 1 2 2 2 3 3 4 3 2 5 5 5 4 4 5 5 6 6 7 7 7
2 2 3 3 2 2 2 2 2 2 2 1 1 2 1 1 1 1 1 1 1 2 2 1 1 2 2 3 4 3 2 2 3 5 5 4 4 5 5 5 5 6 6
2 3 3 3 2 2 2 2 2 2 2 1 1 1 1 1 1 1 1 1 1 1 2 1 1 2 2 2 3 3 3 3 2 5 6 5 5 5 5 5 5 5 5
2 2 3 3 2 2 2 2 2 2 2 1 1 1 1 1 1 1 1 1 1 1 1 1 1 1 2 2 2 3 3 3 3 4 6 6 6 6 7 6 6 5 6
3 3 2 3 3 2 2 2 2 2 1 1 1 1 1 1 1 1 1 1 1 2 2 1 1 1 2 2 2 2 3 3 3 4 5 5 6 7 7 7 7 6 6
3 3 3 2 2 2 3 3 3 2 2 1 1 0 0 1 2 2 2 2 2 2 2 1 1 1 2 2 2 1 2 2 2 2 3 3 3 3 4 6 6 7 6
2 3 3 3 2 1 3 5 5 3 2 2 1 0 1 1 2 3 4 4 4 3 2 2 1 0 1 1 1 1 1 2 2 2 2 2 2 3 3 3 6 7 7
2 3 2 2 2 1 3 5 6 4 3 2 1 1 1 2 2 2 3 4 3 3 4 3 2 1 1 2 1 1 1 0 1 2 2 2 2 2 3 4 7 7 8
3 2 2 2 2 2 4 5 5 4 3 2 1 1 1 0 2 3 3 3 3 2 1 2 2 0 0 0 1 1 1 1 1 2 2 1 2 2 3 3 6 8 9
3 2 2 3 2 2 3 5 5 3 2 1 1 1 1 1 2 4 4 3 2 2 3 4 4 4 5 5 4 2 2 1 2 2 2 1 2 3 2 2 4 8 9
3 3 2 2 2 2 2 4 5 3 3 1 1 1 1 2 2 3 3 3 2 0 2 3 4 5 4 4 5 2 1 1 1 2 2 2 2 2 3 2 3 4 5
Wind_Direction
73 64 56 52 52 55 65 65 66 65 61 55 52 53 51 46 38 32 22 37 41 40 41 45 50 53 52 51 48 46 47 46 46 42 38 38 36 31 30 34 31 28 28
92 85 73 64 57 60 69 72 74 71 64 61 55 50 48 45 40 35 29 27 34 38 39 45 52 54 52 51 50 50 47 45 44 41 39 38 35 28 28 37 43 38 37
97 96 87 76 65 70 76 73 68 66 66 63 55 47 45 43 41 35 31 26 20 30 36 44 51 52 53 51 50 49 45 44 43 42 42 40 34 28 31 35 40 44 47
103 98 91 82 77 75 79 80 71 72 64 60 53 41 38 38 37 36 36 30 25 23 26 37 45 48 50 50 48 47 44 44 45 46 45 40 35 32 34 35 42 52 59
99 100 95 88 86 82 76 86 71 82 82 71 66 51 38 38 32 36 34 31 28 27 25 29 36 40 43 45 46 46 46 47 47 48 46 42 38 37 38 43 48 54 58
94 98 95 88 88 89 80 85 86 74 82 79 73 57 39 37 37 33 27 25 26 29 28 29 25 25 35 39 42 43 45 46 47 47 46 43 40 39 38 44 51 56 57
89 97 99 91 90 97 106 109 103 87 69 67 72 45 24 33 39 31 22 24 24 22 27 28 25 23 21 31 33 39 42 44 45 44 42 41 40 38 38 47 56 61 60
83 108 107 106 102 103 97 97 105 99 65 46 86 79 25 3 6 21 20 28 20 17 24 26 27 27 22 18 22 34 37 39 41 39 39 39 38 36 42 48 58 63 62
72 95 111 110 108 113 121 118 120 120 113 44 65 121 124 206 326 347 9 18 14 18 12 14 25 24 24 22 14 23 32 32 35 36 37 39 39 37 43 49 56 57 57
55 79 102 108 105 105 116 132 126 119 125 112 53 57 110 148 136 350 341 354 10 17 8 12 11 12 15 14 17 23 29 29 32 34 38 41 41 40 43 49 55 55 53
46 66 90 102 105 106 113 106 104 106 119 135 136 118 85 69 95 127 327 331 348 350 357 358 358 357 359 2 0 17 26 28 30 33 36 38 39 40 40 44 49 50 49
27 42 80 92 103 102 107 110 108 105 103 107 113 123 142 142 154 137 160 285 324 319 337 354 359 346 346 352 356 12 20 23 26 31 33 34 34 35 35 37 39 40 42
14 353 95 100 99 104 105 99 94 85 93 100 112 122 134 152 151 144 139 156 340 318 334 341 338 339 342 347 343 3 10 16 20 25 29 29 28 29 29 30 29 32 32
197 168 125 116 109 106 104 99 92 90 89 91 92 103 101 107 141 154 154 144 92 350 349 325 323 334 331 331 345 356 353 8 12 16 22 25 25 26 26 23 22 22 23
169 135 125 118 107 104 107 107 93 93 100 92 90 96 93 66 105 131 140 147 143 128 319 311 319 326 328 324 349 349 335 4 9 11 16 22 25 26 23 19 18 16 16
150 136 129 124 116 108 105 105 96 90 95 77 91 86 69 53 73 91 121 123 134 148 186 282 283 302 324 346 5 357 349 3 8 10 12 18 21 22 21 18 15 13 11
155 153 151 145 138 126 116 112 109 106 98 70 68 89 60 63 71 73 97 100 104 125 156 284 297 310 340 351 349 352 358 0 352 7 12 13 17 18 15 13 12 10 9
166 166 155 147 149 143 136 135 136 125 124 111 95 95 58 82 72 70 92 102 114 136 150 205 318 331 335 338 343 352 1 6 354 7 17 18 19 19 16 11 8 8 8
160 154 153 156 163 162 153 152 152 151 154 164 157 147 158 115 102 100 103 103 98 98 118 142 310 325 320 341 352 350 358 354 360 12 20 24 26 29 27 23 21 22 22
162 165 164 163 164 164 161 157 152 150 145 130 123 148 155 156 178 160 135 135 118 98 94 99 38 344 331 332 1 348 343 347 353 4 7 14 22 25 21 21 20 19 19
164 156 143 140 145 155 168 161 156 144 138 116 76 74 149 149 162 157 145 152 135 118 107 95 51 13 347 347 330 312 321 321 336 1 352 359 4 5 3 6 11 14 18
146 137 144 149 152 172 164 164 153 145 146 143 132 17 32 61 90 106 111 119 134 139 147 135 141 215 285 275 289 321 337 356 329 346 355 336 6 351 341 351 4 15 17
148 144 159 155 170 192 166 159 157 141 139 143 143 95 60 63 76 84 82 81 83 100 136 150 151 217 247 255 250 327 317 270 269 320 352 319 343 333 331 355 8 16 14
152 161 164 165 169 191 169 157 151 134 128 136 144 151 135 67 89 112 100 81 68 51 81 115 145 191 39 161 190 236 236 282 303 348 15 318 324 320 334 341 12 21 19
157 163 156 159 164 197 167 155 142 131 125 120 101 109 143 146 121 119 111 102 65 23 46 73 76 64 51 51 58 55 31 29 331 327 8 339 316 318 321 332 359 11 14
162 149 136 144 159 187 175 169 151 139 137 127 77 56 123 145 132 129 131 133 124 20 51 50 42 33 31 31 47 62 69 46 327 319 342 344 325 342 323 323 344 353 0